Tracking 18851 objects as of 24-Nov-2017
HD Live streaming from Space Station
objects crossing your sky now

FENGYUN 1C DEB

Track FENGYUN 1C DEB now!
10-day predictions


NORAD ID: 37710
Int'l Code: 1999-025EMB
Perigee: 853.3 km
Apogee: 1,259.4 km
Inclination: 99.2 °
Period: 106.2 minutes
Semi major axis: 7427 km
RCS: 0.0081 m2 (small)
Launch date: May 10, 1999
Source: People's Republic of China (PRC)
Launch site: Taiyaun Space Center, China (TSC)

Note: This is SATELLITE DEBRIS
aabbcc
Your satellite tracking list
Your tracking list is empty




NASA's NSSDC Master Catalog

Two Line Element Set (TLE):
1 37710U 99025EMB 17328.15191237 +.00000095 +00000-0 +14916-3 0  9991
2 37710 099.2082 087.3825 0273406 132.9490 351.0512 13.56283669165898
Source of the keplerian elements: AFSPC